DW2659 Weather Reports


time (UTC)temp
C
wind
direction
speed
KPH
gust
KPH
rain 1hr
cm
rain 24hr
cm
rain mn
cm
humidity
%
barometer
mb
20260507193903 18 11 1.6 3.2 0.00 4.45 2.44 66 1012.7
20260507192904 19 12 1.6 3.2 0.00 5.51 2.44 61 1012.9
20260507191905 20 27 1.6 4.8 0.00 5.54 2.44 61 1012.9
20260507191403 20 12 1.6 4.8 0.00 5.54 2.44 60 1012.9
20260507190904 20 50 4.8 8.0 0.00 5.54 2.44 63 1012.9
20260507190405 20 15 1.6 4.8 0.00 5.54 2.44 64 1012.9
20260507185904 19 26 3.2 9.7 0.00 5.54 2.44 62 1012.9
20260507185403 19 13 1.6 8.0 0.00 5.54 2.44 66 1012.9
20260507184905 19 9 3.2 4.8 0.00 5.54 2.44 65 1012.9
20260507184403 19 276 3.2 4.8 0.00 5.54 2.44 68 1012.9
20260507183904 18 43 3.2 4.8 0.00 5.54 2.44 68 1012.9
20260507183405 18 355 1.6 4.8 0.00 5.54 2.44 65 1012.9
20260507182903 18 0 3.2 4.8 0.00 5.54 2.44 69 1012.9
20260507182403 18 3 3.2 4.8 0.00 5.54 2.44 68 1012.9
20260507181905 17 40 1.6 4.8 0.00 5.54 2.44 69 1012.9
20260507181403 17 56 1.6 4.8 0.00 5.54 2.44 70 1012.9
20260507180904 17 38 1.6 4.8 0.00 5.54 2.44 70 1012.9
20260507180405 18 43 3.2 4.8 0.00 5.54 2.44 67 1012.9
20260507175903 18 62 3.2 4.8 0.00 5.54 2.44 69 1013.2
20260507175404 18 34 3.2 4.8 0.00 5.54 2.44 69 1013.4
20260507174905 18 57 3.2 4.8 0.00 5.54 2.44 72 1013.4
20260507174403 18 41 1.6 4.8 0.00 5.54 2.44 70 1013.4
20260507173904 17 45 1.6 8.0 0.00 5.54 2.44 74 1013.4
20260507173405 17 53 3.2 4.8 0.00 5.54 2.44 73 1013.4
20260507172903 17 22 3.2 4.8 0.00 5.54 2.44 73 1013.5
20260507171905 17 127 0.0 4.8 0.00 5.54 2.44 71 1013.5
20260507171403 17 12 3.2 4.8 0.00 5.54 2.44 72 1013.3
20260507170903 17 12 3.2 8.0 0.00 5.54 2.44 73 1013.3
20260507170403 17 0 3.2 4.8 0.00 5.54 2.44 73 1013.3
20260507165905 17 39 3.2 4.8 0.00 5.54 2.44 75 1013.2
20260507165404 17 34 1.6 4.8 0.00 5.54 2.44 78 1013.2
20260507164903 16 18 1.6 3.2 0.00 5.54 2.44 75 1013.5
20260507164405 16 25 1.6 4.8 0.00 5.54 2.44 77 1013.5
20260507163904 16 43 3.2 4.8 0.00 5.54 2.44 77 1013.5
20260507162905 15 68 3.2 4.8 0.00 5.54 2.44 79 1013.4
20260507162404 15 82 1.6 4.8 0.00 5.54 2.44 80 1013.4
20260507161903 15 2 1.6 4.8 0.00 5.54 2.44 80 1013.4
20260507161404 14 19 3.2 8.0 0.00 5.54 2.44 80 1013.8
20260507160904 14 18 1.6 8.0 0.00 5.54 2.44 81 1013.8
20260507160404 14 36 1.6 4.8 0.00 5.54 2.44 81 1013.8
20260507155904 14 289 3.2 4.8 0.00 5.54 2.44 81 1013.5
20260507155403 14 23 3.2 9.7 0.00 5.54 2.44 80 1013.5
20260507154904 15 357 3.2 8.0 0.00 5.54 2.44 80 1013.5
20260507154403 15 5 1.6 4.8 0.00 5.54 2.44 81 1013.0
20260507153905 15 10 1.6 4.8 0.00 5.54 2.44 81 1013.0
20260507153404 15 9 1.6 3.2 0.00 5.54 2.44 81 1013.0
20260507152903 15 4 3.2 4.8 0.00 5.54 2.44 81 1012.8
20260507151904 15 28 1.6 4.8 0.00 5.54 2.44 82 1012.8
20260507151404 15 11 1.6 3.2 0.00 5.54 2.44 83 1012.5
20260507150904 15 51 1.6 3.2 0.00 5.54 2.44 83 1012.5
20260507150404 15 9 1.6 4.8 0.00 5.56 2.44 83 1012.5
20260507145906 15 5 1.6 4.8 0.00 5.64 2.44 85 1012.5
20260507145405 15 344 1.6 4.8 0.00 5.66 2.44 85 1012.5
20260507144903 15 25 1.6 4.8 0.00 5.71 2.44 87 1012.8
20260507144404 15 352 1.6 4.8 0.00 5.74 2.44 87 1012.8
20260507143905 15 5 3.2 4.8 0.00 5.77 2.44 87 1012.8
20260507143404 15 54 1.6 4.8 0.00 5.79 2.44 88 1012.8
20260507142904 15 3 1.6 4.8 0.00 5.84 2.44 88 1012.8
20260507142403 15 9 1.6 3.2 0.00 5.87 2.44 89 1012.8
20260507141904 14 14 1.6 4.8 0.00 5.87 2.44 89 1012.8
20260507141404 14 19 1.6 4.8 0.00 5.87 2.44 89 1012.8
20260507140904 13 5 1.6 3.2 0.00 5.89 2.44 89 1012.8
20260507140406 13 5 1.6 4.8 0.00 5.89 2.44 88 1012.8
20260507135903 13 357 1.6 4.8 0.00 5.89 2.44 88 1012.6
20260507135403 13 41 1.6 4.8 0.00 5.89 2.44 88 1012.6
20260507134904 13 5 1.6 3.2 0.00 5.89 2.44 88 1012.6
20260507134405 13 19 1.6 3.2 0.00 5.89 2.44 88 1012.6
20260507133904 13 341 1.6 4.8 0.00 5.94 2.44 88 1012.6
20260507133404 13 34 1.6 3.2 0.00 5.94 2.44 88 1012.6
20260507132905 13 1 1.6 4.8 0.00 5.94 2.44 88 1012.3
20260507132404 13 353 1.6 4.8 0.00 5.97 2.44 88 1012.3
20260507131905 13 338 1.6 3.2 0.00 5.97 2.44 88 1012.3
20260507131404 13 353 1.6 3.2 0.00 5.97 2.44 88 1012.3
20260507130904 14 13 1.6 4.8 0.00 5.97 2.44 88 1011.9
20260507130404 14 338 1.6 3.2 0.00 5.97 2.44 89 1011.9
20260507125905 14 333 1.6 4.8 0.00 5.97 2.44 88 1011.4
20260507125404 14 359 1.6 4.8 0.03 5.97 2.44 89 1011.4
20260507124904 14 329 1.6 3.2 0.03 5.97 2.44 89 1011.4
20260507124405 14 323 0.0 3.2 0.03 5.97 2.44 88 1011.2
20260507123904 14 351 1.6 4.8 0.05 5.97 2.44 88 1011.2
20260507123404 14 11 1.6 4.8 0.05 5.97 2.44 89 1011.2
20260507122905 14 0 0.0 3.2 0.05 5.97 2.44 89 1011.3
20260507121904 14 7 1.6 3.2 0.05 5.97 2.44 89 1011.3
20260507121405 14 9 1.6 4.8 0.05 5.97 2.44 89 1011.3
20260507115905 14 337 1.6 3.2 0.18 5.97 2.44 88 1011.7
20260507115403 14 355 1.6 3.2 0.20 5.94 2.41 88 1011.7
20260507114904 15 32 1.6 3.2 0.23 5.94 2.41 88 1011.7
20260507114405 15 333 1.6 4.8 0.23 5.94 2.41 88 1011.7
20260507113404 15 346 0.0 1.6 0.23 5.92 2.39 89 1010.8
20260507112904 15 15 0.0 3.2 0.28 5.92 2.39 89 1010.8
20260507112405 15 21 1.6 3.2 0.30 5.92 2.39 88 1010.8
20260507111904 15 42 1.6 4.8 0.36 5.92 2.39 88 1010.8
20260507111404 15 22 1.6 3.2 0.38 5.92 2.39 89 1010.8
20260507110904 15 34 0.0 1.6 0.36 5.89 2.36 89 1010.8
20260507105906 15 34 1.6 3.2 0.28 5.79 2.26 88 1011.0
20260507104905 16 34 1.6 3.2 0.23 5.71 2.18 89 1011.0
20260507104404 16 34 1.6 3.2 0.25 5.71 2.18 89 1010.3
20260507103904 16 34 0.0 3.2 0.28 5.69 2.16 89 1010.3
20260507103404 16 50 1.6 3.2 0.33 5.69 2.16 89 1010.3
20260507102905 16 50 0.0 1.6 0.43 5.64 2.11 89 1010.3
20260507102404 16 50 0.0 3.2 0.46 5.61 2.08 89 1010.3
20260507101904 16 59 0.0 3.2 0.41 5.56 2.03 89 1010.3
20260507101405 16 315 0.0 3.2 0.38 5.54 2.01 89 1010.3
20260507100904 16 278 0.0 1.6 0.38 5.54 2.01 89 1010.3
20260507100404 16 278 0.0 1.6 0.38 5.54 2.01 89 1010.3
20260507095905 16 278 0.0 1.6 0.36 5.51 1.98 89 1010.4
20260507095404 16 267 0.0 1.6 0.36 5.49 1.96 89 1010.4
20260507094904 16 267 1.6 3.2 0.41 5.49 1.96 89 1010.4
20260507094405 16 267 0.0 3.2 0.41 5.46 1.93 89 1011.7
20260507093904 16 327 1.6 3.2 0.36 5.41 1.88 89 1011.7
20260507093404 16 260 1.6 4.8 0.30 5.36 1.83 89 1011.7
20260507092905 16 48 1.6 4.8 0.15 5.21 1.68 89 1010.3
20260507092404 16 258 3.2 8.0 0.10 5.16 1.63 89 1010.3
20260507091905 16 355 0.0 1.6 0.10 5.16 1.63 89 1010.3
20260507091405 16 355 0.0 1.6 0.10 5.16 1.63 89 1010.3
20260507090904 16 355 1.6 1.6 0.10 5.16 1.63 89 1010.3
20260507090405 16 355 1.6 3.2 0.10 5.16 1.63 89 1010.3
20260507085905 16 326 1.6 3.2 0.13 5.16 1.63 89 1010.0
20260507085404 16 327 1.6 4.8 0.13 5.13 1.60 89 1010.0
20260507083904 16 81 0.0 1.6 0.05 5.05 1.52 89 1010.0
20260507082903 16 98 0.0 1.6 0.05 5.05 1.52 89 1010.8
20260507082403 16 98 0.0 4.8 0.05 5.05 1.52 89 1010.8
20260507081903 16 122 1.6 4.8 0.05 5.05 1.52 89 1010.8
20260507080904 16 167 0.0 1.6 0.05 5.05 1.52 89 1010.6
20260507080403 16 167 0.0 1.6 0.05 5.05 1.52 89 1010.2
20260507075902 16 173 0.0 1.6 0.03 5.03 1.50 89 1010.8
20260507075403 16 211 1.6 3.2 0.00 5.00 1.47 89 1010.8
20260507074904 16 211 0.0 1.6 0.00 5.00 1.47 89 1010.8
20260507074402 16 211 0.0 3.2 0.03 5.00 1.47 89 1010.2
20260507073404 16 211 0.0 0.0 0.03 5.00 1.47 89 1010.2
20260507072402 16 211 0.0 0.0 0.03 5.00 1.47 89 1010.6
20260507071403 16 211 0.0 0.0 0.03 5.00 1.47 89 1010.6
20260507070404 16 211 0.0 0.0 0.03 5.00 1.47 89 1010.6
20260507065902 16 211 0.0 0.0 0.03 5.00 1.47 89 1011.0
20260507065403 16 211 0.0 1.6 0.03 5.00 1.47 89 1011.0
20260507064903 16 211 0.0 1.6 0.08 5.00 1.47 89 1011.0
20260507064403 17 211 0.0 0.0 0.46 4.98 1.45 89 1011.0
20260507063902 17 211 1.6 3.2 0.56 4.98 1.45 89 1011.0
20260507063403 17 211 0.0 1.6 0.56 4.98 1.45 89 1011.0
20260507062903 17 211 0.0 1.6 0.56 4.98 1.45 88 1011.4
20260507062403 17 210 1.6 3.2 0.56 4.98 1.45 88 1011.1
20260507060903 17 271 0.0 1.6 0.89 4.98 1.45 89 1011.5
20260507060404 17 271 0.0 3.2 0.91 4.98 1.45 88 1011.5
20260507055902 17 244 3.2 8.0 0.91 4.98 1.45 88 1011.8
20260507055403 17 204 1.6 3.2 0.91 4.98 1.45 88 1012.4
20260507054904 17 95 1.6 12.9 0.86 4.93 1.40 88 1012.4
20260507054402 17 222 6.4 11.3 0.51 4.52 0.99 88 1011.0
20260507053903 17 250 3.2 8.0 0.51 4.42 0.89 88 1011.0
20260507053404 17 153 3.2 12.9 0.64 4.42 0.89 89 1011.0
20260507052902 17 142 3.2 4.8 0.64 4.42 0.89 89 1011.5
20260507052403 17 176 3.2 8.0 0.64 4.42 0.89 89 1011.5
20260507051904 17 237 6.4 9.7 0.61 4.39 0.86 89 1011.5
20260507051403 17 149 3.2 9.7 0.33 4.11 0.58 89 1011.5
20260507050902 17 260 4.8 9.7 0.30 4.09 0.56 89 1011.5
20260507050404 17 136 1.6 3.2 0.30 4.06 0.53 89 1011.5
20260507045902 17 124 0.0 1.6 0.58 4.06 0.53 89 1012.4
20260507045403 17 124 0.0 1.6 0.71 4.06 0.53 89 1012.4
20260507044403 17 147 0.0 1.6 0.86 4.01 0.48 89 1012.3
20260507043902 17 146 0.0 3.2 0.84 3.91 0.38 89 1012.4
20260507043404 17 251 1.6 3.2 0.74 3.78 0.25 89 1012.4
20260507042903 17 220 0.0 0.0 0.74 3.78 0.25 89 1011.8
20260507042403 17 220 0.0 3.2 0.74 3.78 0.25 89 1011.8
20260507041903 17 220 1.6 1.6 0.74 3.78 0.25 89 1011.8
20260507041403 17 220 0.0 1.6 0.74 3.78 0.25 88 1012.5
20260507040903 17 198 1.6 3.2 0.74 3.78 0.25 88 1012.5
20260507040404 17 267 0.0 3.2 0.71 3.76 0.23 89 1012.5
20260507035903 17 220 1.6 3.2 0.48 3.53 3.53 88 1012.5
20260507035403 17 175 1.6 3.2 0.33 3.38 3.38 89 1012.5
20260507034903 17 256 0.0 3.2 0.30 3.35 3.35 89 1012.5
20260507034404 17 256 0.0 1.6 0.15 3.17 3.17 89 1012.5
20260507033903 17 256 1.6 3.2 0.08 3.10 3.10 89 1012.5
20260507033404 17 126 0.0 1.6 0.03 3.05 3.05 89 1012.5
20260507032403 17 126 0.0 3.2 0.03 3.05 3.05 89 1012.2
20260507031904 17 93 0.0 1.6 0.03 3.05 3.05 89 1012.2
20260507031402 17 93 0.0 1.6 0.03 3.05 3.05 89 1012.6
20260507030903 17 93 4.8 4.8 0.03 3.05 3.05 88 1012.6
20260507030404 17 258 1.6 3.2 0.03 3.05 3.05 88 1012.6
20260507025902 17 240 0.0 1.6 0.03 3.05 3.05 88 1012.6
20260507025403 17 240 1.6 1.6 0.03 3.05 3.05 88 1012.6
20260507024904 17 240 0.0 3.2 0.03 3.05 3.05 88 1012.6
20260507024403 17 220 1.6 3.2 0.00 3.02 3.02 88 1012.6
20260507023903 17 133 1.6 1.6 0.00 3.02 3.02 88 1012.6
20260507023404 17 133 0.0 1.6 0.00 3.02 3.02 88 1012.6
20260507022903 17 133 0.0 0.0 0.00 3.02 3.02 88 1012.6
20260507021904 17 133 0.0 0.0 0.00 3.02 3.02 88 1012.6
20260507021404 17 133 0.0 0.0 0.00 3.02 3.02 88 1012.6
20260507020404 17 133 0.0 1.6 0.00 3.02 3.02 88 1012.6
20260507015903 17 133 0.0 1.6 0.00 3.02 3.02 88 1012.6
20260507015403 17 133 0.0 1.6 0.00 3.02 3.02 88 1012.6
20260507014904 17 133 0.0 0.0 0.00 3.02 3.02 88 1012.6
20260507014402 17 133 0.0 0.0 0.00 3.02 3.02 88 1012.4
20260507013903 17 133 0.0 0.0 0.00 3.02 3.02 88 1012.4
20260507013404 17 133 0.0 3.2 0.00 3.02 3.02 88 1012.1
20260507012903 17 202 1.6 3.2 0.00 3.02 3.02 88 1012.1
20260507012403 17 202 0.0 3.2 0.00 3.02 3.02 88 1012.0
20260507011904 17 247 1.6 3.2 0.03 3.02 3.02 88 1012.0
20260507011403 17 150 0.0 1.6 0.03 3.02 3.02 88 1012.3
20260507010903 17 150 0.0 0.0 0.08 3.02 3.02 88 1012.3
20260507010404 17 150 0.0 1.6 0.28 3.02 3.02 88 1012.3
20260507005403 17 182 0.0 1.6 0.30 3.02 3.02 88 1012.3
20260507004904 17 182 0.0 3.2 0.30 3.02 3.02 88 1012.3
20260507004403 17 200 3.2 4.8 0.30 3.02 3.02 88 1012.0
20260507003404 17 270 0.0 1.6 0.30 3.02 3.02 88 1012.3
20260507002403 17 270 1.6 1.6 0.30 3.02 3.02 88 1012.7
20260507001904 17 207 3.2 8.0 0.28 3.00 3.00 88 1012.7
20260507001402 17 174 1.6 4.8 0.30 3.00 3.00 88 1013.1
20260507000903 18 163 0.0 1.6 0.28 2.95 2.95 88 1013.1
20260507000405 18 192 0.0 1.6 0.10 2.74 2.74 88 1013.1
20260506235902 18 192 0.0 1.6 0.20 2.72 2.72 88 1012.5
20260506235403 18 192 0.0 1.6 0.36 2.72 2.72 88 1012.5
20260506234403 18 192 0.0 1.6 0.41 2.72 2.72 88 1012.1
20260506233903 18 192 0.0 0.0 0.53 2.72 2.72 88 1012.1
20260506233405 18 192 0.0 1.6 0.61 2.72 2.72 88 1012.1
20260506232903 18 192 0.0 0.0 0.64 2.72 2.72 88 1012.1
20260506231904 18 192 0.0 1.6 0.69 2.72 2.72 88 1012.1
20260506231403 18 192 0.0 3.2 0.69 2.69 2.69 88 1012.3
20260506230903 18 192 0.0 3.2 0.69 2.67 2.67 88 1012.3
20260506230404 18 166 3.2 4.8 0.66 2.64 2.64 88 1012.3
20260506225903 18 121 0.0 1.6 0.56 2.51 2.51 88 1011.9
20260506225403 18 161 0.0 1.6 0.41 2.36 2.36 87 1011.9
20260506224905 18 149 0.0 1.6 0.38 2.34 2.34 87 1011.9
20260506224403 18 149 1.6 8.0 0.36 2.31 2.31 87 1010.9
20260506223903 18 273 0.0 1.6 0.23 2.18 2.18 87 1010.9
20260506223404 18 273 1.6 3.2 0.15 2.11 2.11 87 1010.9
20260506222904 18 328 0.0 3.2 0.13 2.08 2.08 87 1010.9
20260506222403 18 303 1.6 3.2 0.10 2.06 2.06 87 1011.5
20260506221403 18 260 1.6 1.6 0.05 2.01 2.01 87 1011.5
20260506220903 18 260 0.0 3.2 0.03 1.98 1.98 87 1011.6
20260506220404 18 246 1.6 4.8 0.03 1.98 1.98 87 1011.6
20260506215903 18 241 0.0 0.0 0.00 1.96 1.96 86 1011.1
20260506215403 18 241 0.0 0.0 0.00 1.96 1.96 86 1011.1
20260506214904 18 241 0.0 0.0 0.00 1.96 1.96 86 1011.1
20260506214403 18 241 0.0 0.0 0.00 1.96 1.96 87 1011.1
20260506213903 18 241 0.0 3.2 0.03 1.96 1.96 86 1011.1
20260506212903 18 241 0.0 1.6 0.13 1.96 1.96 86 1011.6
20260506212403 18 241 0.0 0.0 0.18 1.96 1.96 87 1011.6
20260506211905 18 241 0.0 0.0 0.18 1.96 1.96 87 1011.6
20260506211403 18 241 0.0 1.6 0.18 1.96 1.96 86 1011.5
20260506210903 18 241 1.6 3.2 0.23 1.96 1.96 86 1011.5
20260506210405 18 208 1.6 3.2 0.25 1.96 1.96 86 1011.5
20260506205903 18 195 0.0 8.0 0.28 1.96 1.96 86 1011.9
20260506205403 18 240 3.2 9.7 0.28 1.96 1.96 85 1011.9
20260506204904 18 200 4.8 11.3 0.28 1.96 1.96 85 1011.9
20260506204403 18 122 4.8 9.7 0.38 1.96 1.96 85 1012.1
20260506203903 18 148 3.2 8.0 0.41 1.93 1.93 85 1012.1
20260506203404 18 165 3.2 9.7 0.61 1.91 1.91 85 1012.1
20260506202904 18 259 3.2 4.8 1.30 1.83 1.83 85 1012.2
20260506202404 18 191 3.2 4.8 1.35 1.78 1.78 84 1012.2
20260506201904 18 213 3.2 12.9 1.35 1.78 1.78 85 1012.2
20260506201403 18 189 4.8 11.3 1.35 1.78 1.78 85 1012.5
20260506200904 18 240 3.2 11.3 1.30 1.73 1.73 85 1012.5
20260506200405 18 186 4.8 11.3 1.27 1.70 1.70 85 1012.2
20260506195903 18 218 6.4 12.9 1.24 1.68 1.68 85 1012.2
20260506195403 18 266 6.4 12.9 1.24 1.68 1.68 85 1012.2